Home > Weather > Formosa > Past weeks

Flag for Argentina Weather for the Past 2 Weeks in Formosa, Formosa, Argentina

Now
97 °F

Passing clouds.


Feels Like: 112 °F
Forecast: 82 / 98 °F
Wind: 21 mph from Northeast

Location: Formosa Aerodrome

Current Time: Feb 13, 2016 at 3:01:00 PM

Latest Report: Feb 13, 2016 at 2:00 PM


Visibility: N/A

Pressure: 29.71 "Hg

Humidity: 53%

Dew point: 77 °F

Location of FormosaLocation

Historic Weather in Formosa — Graph

°F

Formosa Temperature Yesterday

Maximum temperature yesterday: 97 °F (at 3:00 PM)
Minimum temperature yesterday: 68 °F (at 9:00 AM)
Average temperature yesterday: 88 °F

High & Low Weather Summary for the Past Weeks

 TemperatureHumidityPressure
High99 °F (Jan 29, 4:00 PM)100% (Jan 30, 12:00 PM)30.04 "Hg (Jan 30, 12:00 PM)
Low68 °F (Feb 12, 9:00 AM)49% (Feb 1, 4:00 PM)29.59 "Hg (Feb 12, 11:00 AM)
Average83 °F80%29.86 "Hg
* Reported Jan 29 2:00 PM — Feb 13 2:00 PM, Formosa, Weather by CustomWeather, © 2016

Note: Actual official high and low records may vary slightly from our data, if they occured in-between our weather recording intervals... More about our weather records

Advertising

Formosa Weather History for the Previous 24 Hours

 ConditionsComfort  
Time TempWeatherWind HumidityBarometerVisibility
2:00 PM
Sat, Feb 13
97 °FPassing clouds.21 mph53%29.71 "HgN/A
12:00 PM95 °FPassing clouds.21 mph53%29.74 "HgN/A
11:00 AM93 °FSunny.15 mph59%29.74 "Hg10 mi
10:00 AM90 °FSunny.17 mph71%29.71 "Hg10 mi
9:00 AM88 °FSunny.15 mph75%29.74 "Hg10 mi
8:00 AM84 °FSunny.7 mph84%29.74 "Hg10 mi
7:00 AM81 °FSunny.7 mph94%29.74 "Hg10 mi
6:00 AM81 °FSmoke.3 mph94%29.68 "HgN/A
5:00 AM82 °FClear.9 mph89%29.68 "Hg10 mi
4:00 AM82 °FClear.9 mph89%29.65 "Hg10 mi
3:00 AM84 °FClear.12 mph84%29.68 "Hg10 mi
2:00 AM84 °FClear.9 mph89%29.68 "Hg10 mi
1:00 AM86 °FClear.13 mph84%29.68 "Hg10 mi
12:00 AM86 °FClear.7 mph84%29.68 "Hg10 mi
11:00 PM
Fri, Feb 12
86 °FClear.8 mph84%29.68 "Hg10 mi
8:00 PM91 °FClear.7 mph67%29.65 "Hg10 mi
7:00 PM95 °FPassing clouds.9 mph56%29.65 "HgN/A
6:00 PM95 °FPassing clouds.9 mph56%29.65 "HgN/A
5:00 PM97 °FPassing clouds.10 mph56%29.68 "HgN/A
4:00 PM97 °FScattered clouds.12 mph56%29.68 "HgN/A
3:00 PM97 °FScattered clouds.9 mph56%29.71 "HgN/A
Weather by CustomWeather, © 2016

See weather overviewHow to use our weather pages